This is the latest recevied weather packets stored in our database for station/object W8AN. If no packets are shown the sender has not sent any weather packets the latest 10 day(s).
| Time | Temp. | Humidity | Pressure | Rain* | Wind** | Luminosity | Snow |
|---|---|---|---|---|---|---|---|
| 1777634364 | 5° C | 85% | 4267.4 hPa | 0 mm | - | 5 W/m² | - |
| 1777634060 | 5° C | 85% | 4267.5 hPa | 0 mm | - | 3 W/m² | - |
| 1777633756 | 5° C | 85% | 4267.3 hPa | 0 mm | - | 2 W/m² | - |
| 1777633455 | 5° C | 85% | 4267.4 hPa | 0 mm | - | 1 W/m² | - |
| 1777633152 | 5° C | 85% | 4267.6 hPa | 0 mm | - | 1 W/m² | - |
| 1777632849 | 5° C | 85% | 4267.6 hPa | 0 mm | - | 1 W/m² | - |
| 1777632544 | 5° C | 85% | 4267.4 hPa | 0 mm | - | 2 W/m² | - |
| 1777632242 | 5° C | 85% | 4267.3 hPa | 0 mm | - | 1 W/m² | - |
| 1777631938 | 5° C | 85% | 4267.7 hPa | 1.78 mm | - | 0 W/m² | - |
| 1777631637 | 5° C | 85% | 4267.6 hPa | 3.05 mm | - | 0 W/m² | - |
| 1777631334 | 5° C | 85% | 4267.7 hPa | 3.05 mm | - | 0 W/m² | - |
| 1777631030 | 5° C | 84% | 4267.6 hPa | 4.83 mm | - | 0 W/m² | - |
| 1777630727 | 5° C | 84% | 4267.9 hPa | 3.05 mm | - | 0 W/m² | - |
| 1777630424 | 5° C | 84% | 4267.8 hPa | 0 mm | - | 0 W/m² | - |
| 1777630121 | 5° C | 85% | 4267.5 hPa | 0 mm | - | 0 W/m² | - |
| 1777629819 | 5° C | 84% | 4267.5 hPa | 0 mm | - | 0 W/m² | - |
| 1777629515 | 5° C | 84% | 4267.5 hPa | 1.27 mm | - | 0 W/m² | - |
| 1777629212 | 5° C | 84% | 4267.8 hPa | 3.05 mm | - | 0 W/m² | - |
| 1777628908 | 5° C | 84% | 4267.9 hPa | 3.56 mm | - | 0 W/m² | - |
| 1777628605 | 5° C | 84% | 4267.7 hPa | 3.05 mm | - | 0 W/m² | - |
| 1777628300 | 5° C | 84% | 4267.9 hPa | 1.27 mm | - | 0 W/m² | - |
| 1777627997 | 5° C | 84% | 4267.9 hPa | 1.27 mm | - | 0 W/m² | - |
| 1777627696 | 5° C | 84% | 4268.2 hPa | 1.78 mm | - | 0 W/m² | - |
| 1777627395 | 5° C | 84% | 4268.1 hPa | 1.78 mm | - | 0 W/m² | - |
| 1777627092 | 5° C | 84% | 4267.9 hPa | 1.27 mm | - | 0 W/m² | - |
* Rain latest hour (hover to see other rain measurements)
** Current wind speed in m/s (hover to see current wind gust speed)